Oelwein, IA

9:16 AM CST on December 12, 2017 (GMT -0600)
Oelwein Municipal

Weather History for KOLZ - October, 2012

Change the Weather History Date:

Monday, October 22, 2012

  Actual Average Record
Temperature  
Mean Temperature 62 °F -  
Max Temperature 69 °F 61 °F 80 °F (1975)
Min Temperature 55 °F 38 °F 14 °F (1976)
Degree Days  
Heating Degree Days 3    
Growing Degree Days 12 (Base 50)    
Moisture  
Dew Point 57 °F    
Average Humidity 87    
Maximum Humidity 100    
Minimum Humidity 73    
Precipitation  
Precipitation 0.34 in - - ()
Sea Level Pressure  
Sea Level Pressure 29.86 in    
Wind  
Wind Speed 8 mph (ESE)    
Max Wind Speed 14 mph    
Max Gust Speed 17 mph    
Visibility 8 miles    
Events Rain    
Averages and records for this station are not official NWS values.
T = Trace of Precipitation, MM = Missing Value Source: NWS Daily Summary

Daily Weather History Graph

Daily Weather History Graph

Search for Another Location

Airport or City:

Trip Planner

Search our weather history database for the weather conditions in past years. The results will help you decide how hot, cold, wet, or windy it might be!

Date:

Astronomy

Oct. 22, 2012 Rise Set
Actual Time 7:30 AM CDT 6:13 PM CDT
Civil Twilight 7:01 AM CDT 6:42 PM CDT
Nautical Twilight 6:28 AM CDT 7:15 PM CDT
Astronomical Twilight 5:55 AM CDT 7:48 PM CDT
Moon 2:30 PM CDT (10/22) 12:08 AM CDT (10/22)
Length of Visible Light 11h 41m
Length of Day
10h 43m
First Quarter, 56% of the Moon is Illuminated
Oct 22
First Quarter
Oct 29
Full
Nov 6
Last Quarter
Nov 13
New
Nov 20
First Quarter

Hourly Weather History & Observations

Time (CDT) Temp. Dew Point Humidity Pressure Visibility Wind Dir Wind Speed Gust Speed Precip Events Conditions
12:33 AM 57.2 °F 50.0 °F 77% 29.89 in 10.0 mi SE 10.4 mph - N/A   Clear
12:35 AM 55.4 °F 50.0 °F 82% 29.89 in 10.0 mi SE 10.4 mph - N/A   Clear
12:53 AM 57.2 °F 50.0 °F 77% 29.89 in 10.0 mi SE 9.2 mph - N/A   Clear
12:55 AM 55.4 °F 50.0 °F 82% 29.89 in 10.0 mi SE 9.2 mph - N/A   Clear
1:13 AM 57.2 °F 50.0 °F 77% 29.88 in 10.0 mi SE 8.1 mph - N/A   Clear
1:15 AM 55.4 °F 50.0 °F 82% 29.88 in 10.0 mi SE 9.2 mph - N/A   Clear
1:35 AM 55.4 °F 50.0 °F 82% 29.88 in 10.0 mi SE 9.2 mph - N/A   Clear
1:53 AM 57.2 °F 50.0 °F 77% 29.88 in 10.0 mi SE 9.2 mph - N/A   Clear
1:55 AM 55.4 °F 50.0 °F 82% 29.88 in 10.0 mi SE 8.1 mph - N/A   Clear
2:13 AM 57.2 °F 50.0 °F 77% 29.87 in 10.0 mi ESE 9.2 mph - N/A   Clear
2:15 AM 55.4 °F 50.0 °F 82% 29.87 in 10.0 mi ESE 9.2 mph - N/A   Clear
2:53 AM 57.2 °F 51.8 °F 82% 29.87 in 10.0 mi SE 8.1 mph - N/A   Clear
2:55 AM 55.4 °F 50.0 °F 82% 29.87 in 10.0 mi ESE 8.1 mph - N/A   Clear
3:13 AM 55.4 °F 51.8 °F 88% 29.86 in 10.0 mi ESE 9.2 mph - N/A   Clear
3:15 AM 55.4 °F 50.0 °F 82% 29.86 in 10.0 mi ESE 9.2 mph - N/A   Clear
3:35 AM 55.4 °F 50.0 °F 82% 29.86 in 10.0 mi ESE 8.1 mph - N/A   Clear
4:13 AM 57.2 °F 51.8 °F 82% 29.85 in 10.0 mi ESE 8.1 mph - N/A   Clear
4:15 AM 55.4 °F 50.0 °F 82% 29.85 in 10.0 mi ESE 8.1 mph - N/A   Clear
4:33 AM 57.2 °F 51.8 °F 82% 29.85 in 10.0 mi ESE 9.2 mph - N/A   Clear
4:53 AM 57.2 °F 51.8 °F 82% 29.85 in 10.0 mi ESE 9.2 mph - N/A   Clear
4:55 AM 55.4 °F 51.8 °F 88% 29.85 in 10.0 mi ESE 8.1 mph - N/A   Clear
5:13 AM 57.2 °F 51.8 °F 82% 29.84 in 10.0 mi ESE 8.1 mph - N/A   Clear
5:15 AM 55.4 °F 51.8 °F 88% 29.84 in 10.0 mi ESE 9.2 mph - N/A   Clear
5:33 AM 57.2 °F 53.6 °F 88% 29.85 in 10.0 mi SE 8.1 mph - N/A   Clear
5:35 AM 55.4 °F 51.8 °F 88% 29.85 in 10.0 mi ESE 6.9 mph - N/A   Clear
5:54 AM 57.2 °F 51.8 °F 82% 29.86 in 10.0 mi SE 8.1 mph - N/A   Clear
6:13 AM 57.2 °F 53.6 °F 88% 29.86 in 10.0 mi ESE 6.9 mph - N/A   Clear
6:15 AM 55.4 °F 51.8 °F 88% 29.86 in 10.0 mi ESE 6.9 mph - N/A   Clear
6:32 AM 57.2 °F 53.6 °F 88% 29.85 in 10.0 mi East 5.8 mph - N/A   Clear
6:35 AM 55.4 °F 51.8 °F 88% 29.86 in 10.0 mi East 8.1 mph - N/A   Clear
6:52 AM 57.2 °F 53.6 °F 88% 29.86 in 10.0 mi ESE 5.8 mph - N/A   Clear
6:55 AM 55.4 °F 51.8 °F 88% 29.86 in 10.0 mi ESE 4.6 mph - N/A   Clear
7:12 AM 57.2 °F 53.6 °F 88% 29.85 in 10.0 mi East 8.1 mph - N/A   Clear
7:15 AM 55.4 °F 51.8 °F 88% 29.85 in 10.0 mi ESE 8.1 mph - N/A   Clear
7:35 AM 55.4 °F 51.8 °F 88% 29.86 in 10.0 mi ESE 9.2 mph - N/A   Clear
7:52 AM 57.2 °F 53.6 °F 88% 29.86 in 5.0 mi ESE 8.1 mph - 0.03 in Rain Heavy Rain
8:12 AM 55.4 °F 53.6 °F 94% 29.87 in 5.0 mi SE 8.1 mph - 0.03 in Rain Light Rain
8:15 AM 55.4 °F 53.6 °F 94% 29.87 in 5.0 mi SE 8.1 mph - 0.03 in Rain Light Rain
8:32 AM 57.2 °F 55.4 °F 94% 29.86 in 4.0 mi South 12.7 mph - 0.09 in Rain Rain
8:35 AM 57.2 °F 53.6 °F 88% 29.86 in 4.0 mi South 10.4 mph - 0.09 in Rain Rain
9:12 AM 57.2 °F 55.4 °F 94% 29.86 in 3.0 mi SE 6.9 mph - 0.01 in Rain Light Rain
9:15 AM 57.2 °F 55.4 °F 94% 29.86 in 3.0 mi SSE 5.8 mph - 0.01 in Rain Light Rain
9:32 AM 59.0 °F 57.2 °F 94% 29.87 in 1.2 mi ESE 6.9 mph - 0.04 in Rain Rain
9:35 AM 59.0 °F 55.4 °F 88% 29.87 in 1.2 mi ESE 6.9 mph - 0.05 in Rain Rain
9:52 AM 59.0 °F 57.2 °F 94% 29.86 in 2.5 mi SE 6.9 mph - 0.12 in Rain Rain
9:55 AM 59.0 °F 55.4 °F 88% 29.86 in 2.5 mi SE 6.9 mph - 0.12 in Rain Rain
10:12 AM 59.0 °F 57.2 °F 94% 29.86 in 3.0 mi Calm Calm - 0.04 in Rain Rain
10:15 AM 59.0 °F 55.4 °F 88% 29.86 in 3.0 mi Calm Calm - 0.04 in Rain Rain
10:32 AM 59.0 °F 57.2 °F 94% 29.86 in 2.5 mi Calm Calm - 0.06 in Rain Light Rain
10:35 AM 59.0 °F 55.4 °F 88% 29.86 in 2.5 mi Calm Calm - 0.07 in Rain Light Rain
10:52 AM 59.0 °F 57.2 °F 94% 29.86 in 2.5 mi Calm Calm - 0.08 in Rain Light Rain
10:55 AM 59.0 °F 57.2 °F 94% 29.86 in 2.5 mi WSW 3.5 mph - 0.08 in Rain Light Rain
11:12 AM 60.8 °F 57.2 °F 88% 29.85 in 2.0 mi Calm Calm - 0.01 in Rain Light Rain
11:15 AM 59.0 °F 57.2 °F 94% 29.86 in 2.0 mi Calm Calm - 0.01 in Rain Light Rain
11:32 AM 60.8 °F 59.0 °F 94% 29.86 in 5.0 mi Calm Calm - 0.02 in   Light Drizzle
11:35 AM 59.0 °F 59.0 °F 100% 29.86 in 5.0 mi NE 3.5 mph - 0.02 in   Scattered Clouds
11:52 AM 62.6 °F 60.8 °F 94% 29.87 in 5.0 mi NE 8.1 mph - 0.02 in Rain Light Rain
11:55 AM 60.8 °F 59.0 °F 94% 29.86 in 5.0 mi NE 9.2 mph - 0.02 in Rain Light Rain
12:12 PM 60.8 °F 60.8 °F 100% 29.86 in 7.0 mi ENE 8.1 mph - N/A   Mostly Cloudy
12:15 PM 60.8 °F 59.0 °F 94% 29.86 in 7.0 mi ENE 8.1 mph - N/A   Mostly Cloudy
12:32 PM 60.8 °F 59.0 °F 94% 29.86 in 5.0 mi East 12.7 mph - N/A   Scattered Clouds
12:35 PM 60.8 °F 59.0 °F 94% 29.86 in 5.0 mi ENE 11.5 mph - N/A   Scattered Clouds
12:52 PM 62.6 °F 60.8 °F 94% 29.86 in 7.0 mi ESE 8.1 mph - N/A   Scattered Clouds
12:55 PM 62.6 °F 60.8 °F 94% 29.86 in 10.0 mi SE 8.1 mph - N/A   Scattered Clouds
1:12 PM 64.4 °F 62.6 °F 94% 29.86 in 10.0 mi SE 8.1 mph - N/A   Scattered Clouds
1:15 PM 64.4 °F 60.8 °F 88% 29.86 in 10.0 mi SE 8.1 mph - N/A   Scattered Clouds
1:32 PM 66.2 °F 62.6 °F 88% 29.84 in 10.0 mi SE 5.8 mph - N/A   Clear
1:35 PM 66.2 °F 60.8 °F 83% 29.84 in 10.0 mi ESE 6.9 mph - N/A   Clear
1:52 PM 69.8 °F 60.8 °F 73% 29.84 in 10.0 mi SE 8.1 mph - N/A   Clear
1:55 PM 68.0 °F 60.8 °F 78% 29.84 in 10.0 mi SE 8.1 mph - N/A   Clear
2:12 PM 69.8 °F 60.8 °F 73% 29.83 in 10.0 mi SSE 10.4 mph - N/A   Clear
2:15 PM 68.0 °F 60.8 °F 78% 29.83 in 10.0 mi SE 10.4 mph - N/A   Clear
2:32 PM 69.8 °F 60.8 °F 73% 29.83 in 10.0 mi SSE 9.2 mph - N/A   Clear
2:52 PM 68.0 °F 60.8 °F 78% 29.84 in 10.0 mi SSE 10.4 mph - N/A   Clear
2:55 PM 66.2 °F 60.8 °F 83% 29.84 in 10.0 mi SE 10.4 mph - N/A   Clear
3:12 PM 68.0 °F 60.8 °F 78% 29.84 in 10.0 mi ESE 6.9 mph - N/A   Clear
3:15 PM 68.0 °F 59.0 °F 73% 29.84 in 10.0 mi ESE 9.2 mph - N/A   Clear
3:32 PM 68.0 °F 60.8 °F 78% 29.84 in 10.0 mi SE 9.2 mph - N/A   Clear
3:35 PM 68.0 °F 59.0 °F 73% 29.84 in 10.0 mi SE 8.1 mph - N/A   Clear
3:52 PM 68.0 °F 60.8 °F 78% 29.84 in 10.0 mi East 10.4 mph - N/A   Clear
3:55 PM 68.0 °F 60.8 °F 78% 29.84 in 10.0 mi East 10.4 mph - N/A   Clear
4:12 PM 66.2 °F 60.8 °F 83% 29.84 in 10.0 mi East 10.4 mph - N/A   Clear
4:15 PM 66.2 °F 60.8 °F 83% 29.84 in 10.0 mi East 10.4 mph - N/A   Clear
4:32 PM 66.2 °F 60.8 °F 83% 29.84 in 10.0 mi East 8.1 mph - N/A   Clear
4:35 PM 64.4 °F 59.0 °F 83% 29.84 in 10.0 mi East 10.4 mph - N/A   Clear
4:52 PM 66.2 °F 60.8 °F 83% 29.85 in 10.0 mi East 10.4 mph - N/A   Clear
4:55 PM 64.4 °F 59.0 °F 83% 29.85 in 10.0 mi East 9.2 mph - N/A   Clear
5:12 PM 64.4 °F 60.8 °F 88% 29.86 in 10.0 mi East 8.1 mph - N/A   Clear
5:15 PM 64.4 °F 59.0 °F 83% 29.86 in 10.0 mi East 9.2 mph - N/A   Clear
5:32 PM 64.4 °F 60.8 °F 88% 29.86 in 10.0 mi East 11.5 mph - N/A   Clear
5:35 PM 64.4 °F 59.0 °F 83% 29.86 in 10.0 mi East 13.8 mph - N/A   Scattered Clouds
5:52 PM 64.4 °F 60.8 °F 88% 29.86 in 7.0 mi East 10.4 mph - N/A   Mostly Cloudy
6:12 PM 62.6 °F 59.0 °F 88% 29.86 in 7.0 mi East 11.5 mph - N/A   Scattered Clouds
6:15 PM 62.6 °F 59.0 °F 88% 29.86 in 10.0 mi East 11.5 mph - N/A   Scattered Clouds
6:32 PM 62.6 °F 59.0 °F 88% 29.86 in 10.0 mi East 11.5 mph - N/A   Clear
6:35 PM 60.8 °F 59.0 °F 94% 29.86 in 10.0 mi East 12.7 mph - N/A   Clear
6:52 PM 62.6 °F 59.0 °F 88% 29.86 in 10.0 mi East 10.4 mph - N/A   Clear
6:55 PM 60.8 °F 59.0 °F 94% 29.86 in 10.0 mi East 8.1 mph - N/A   Clear
7:12 PM 62.6 °F 59.0 °F 88% 29.86 in 10.0 mi East 11.5 mph - N/A   Clear
7:15 PM 60.8 °F 59.0 °F 94% 29.86 in 10.0 mi East 10.4 mph - N/A   Clear
7:32 PM 62.6 °F 59.0 °F 88% 29.86 in 10.0 mi East 10.4 mph - N/A   Clear
7:52 PM 62.6 °F 59.0 °F 88% 29.86 in 10.0 mi ESE 8.1 mph - N/A   Clear
7:55 PM 60.8 °F 59.0 °F 94% 29.86 in 10.0 mi ESE 8.1 mph - N/A   Clear
8:12 PM 62.6 °F 59.0 °F 88% 29.87 in 7.0 mi ESE 6.9 mph - N/A   Clear
8:52 PM 60.8 °F 59.0 °F 94% 29.87 in 7.0 mi East 10.4 mph - N/A   Clear
9:12 PM 60.8 °F 59.0 °F 94% 29.87 in 3.0 mi East 9.2 mph - N/A   Mostly Cloudy
9:32 PM 60.8 °F 59.0 °F 94% 29.86 in 3.0 mi East 10.4 mph - N/A   Overcast
9:52 PM 60.8 °F 57.2 °F 88% 29.87 in 3.0 mi East 10.4 mph - N/A   Overcast
10:12 PM 60.8 °F 57.2 °F 88% 29.86 in 2.0 mi East 10.4 mph - N/A   Overcast
10:32 PM 60.8 °F 59.0 °F 94% 29.86 in 2.0 mi East 11.5 mph - N/A   Overcast
10:52 PM 60.8 °F 59.0 °F 94% 29.86 in 2.0 mi East 10.4 mph - N/A   Overcast
11:12 PM 60.8 °F 59.0 °F 94% 29.86 in 2.5 mi East 11.5 mph - N/A   Overcast
11:32 PM 60.8 °F 59.0 °F 94% 29.85 in 3.0 mi East 11.5 mph 17.3 mph N/A   Overcast
11:52 PM 60.8 °F 59.0 °F 94% 29.86 in 3.0 mi East 9.2 mph - N/A   Overcast